This is the latest recevied weather packets stored in our database for station/object DL9GRB-13. If no packets are shown the sender has not sent any weather packets the latest 10 day(s).
| Time | Temp. | Humidity | Pressure | Rain* | Wind** | Luminosity | Snow |
|---|---|---|---|---|---|---|---|
| 1778303949 | 7.78° C | 80% | 1021.4 hPa | 0 mm | - | 85 W/m² | - |
| 1778303769 | 7.22° C | 82% | 1021.5 hPa | 0 mm | - | 84 W/m² | - |
| 1778303589 | 7.22° C | 82% | 1021.4 hPa | 0 mm | - | 82 W/m² | - |
| 1778303409 | 6.67° C | 82% | 1021.3 hPa | 0 mm | - | 80 W/m² | - |
| 1778303229 | 6.11° C | 83% | 1021.4 hPa | 0 mm | - | 78 W/m² | - |
| 1778303049 | 5.56° C | 84% | 1021.2 hPa | 0 mm | - | 75 W/m² | - |
| 1778302869 | 5.56° C | 85% | 1021.3 hPa | 0 mm | - | 73 W/m² | - |
| 1778302689 | 5° C | 88% | 1021.3 hPa | 0 mm | - | 71 W/m² | - |
| 1778302509 | 4.44° C | 90% | 1021.3 hPa | 0 mm | - | 68 W/m² | - |
| 1778302329 | 4.44° C | 93% | 1021.2 hPa | 0 mm | - | 66 W/m² | - |
| 1778302149 | 3.33° C | 94% | 1021.3 hPa | 0 mm | - | 64 W/m² | - |
| 1778301969 | 3.33° C | 95% | 1021.1 hPa | 0 mm | - | 61 W/m² | - |
| 1778301789 | 2.78° C | 96% | 1021.5 hPa | 0 mm | - | 58 W/m² | - |
| 1778301609 | 2.78° C | 97% | 1021.3 hPa | 0 mm | - | 56 W/m² | - |
| 1778301429 | 2.22° C | 97% | 1021.2 hPa | 0 mm | - | 53 W/m² | - |
| 1778301249 | 1.67° C | 97% | 1021.3 hPa | 0 mm | - | 51 W/m² | - |
| 1778301069 | 1.11° C | 97% | 1021.2 hPa | 0 mm | - | 48 W/m² | - |
| 1778300889 | 0.56° C | 96% | 1021.2 hPa | 0 mm | - | 45 W/m² | - |
| 1778300709 | 0.56° C | 96% | 1021.3 hPa | 0 mm | - | 40 W/m² | - |
| 1778300529 | 0.56° C | 96% | 1021.3 hPa | 0 mm | - | 24 W/m² | - |
| 1778300349 | 0.56° C | 96% | 1021.4 hPa | 0 mm | - | 23 W/m² | - |
| 1778300169 | 0.56° C | 96% | 1021.1 hPa | 0 mm | - | 22 W/m² | - |
| 1778299989 | 0.56° C | 96% | 1021.3 hPa | 0 mm | - | 21 W/m² | - |
| 1778299809 | 0° C | 96% | 1021.4 hPa | 0 mm | - | 20 W/m² | - |
| 1778299629 | 0° C | 95% | 1021.2 hPa | 0 mm | - | 19 W/m² | - |
* Rain latest hour (hover to see other rain measurements)
** Current wind speed in m/s (hover to see current wind gust speed)